,,,PA_Meas_PMT16A,,PR_Meas_QMR101_102,,RH_Meas_QMH101,,SR_Meas_QMS101,,TA_Meas_QMH101,,GenWind,,GenWind,
date,time,status,PA,status,PR,status,RH,status,SR,status,TA,status,DirAvg,status,SpdAvg,
2012-01-30, 00:00:04,VALID,1008.63,VALID,0,VALID,104,VALID,0,VALID,22.5446,VALID,343,VALID,0,
2012-01-30, 00:01:04,VALID,1008.68,VALID,0,VALID,104,VALID,0,VALID,22.5446,VALID,343,VALID,0.0492188,
2012-01-30, 00:02:04,VALID,1008.63,VALID,0,VALID,104,VALID,0,VALID,22.5251,VALID,343,VALID,0.323438,
2012-01-30, 00:03:04,VALID,1008.63,VALID,0,VALID,104,VALID,0,VALID,22.5056,VALID,343,VALID,0.207422,
2012-01-30, 00:04:04,VALID,1008.62,VALID,0,VALID,104,VALID,0,VALID,22.465,VALID,343,VALID,0,
2012-01-30, 00:05:04,VALID,1008.63,VALID,0,VALID,104,VALID,0,VALID,22.4472,VALID,343,VALID,0,
2012-01-30, 00:06:04,VALID,1008.61,VALID,0,VALID,104,VALID,0,VALID,22.4472,VALID,343,VALID,0,
2012-01-30, 00:07:04,VALID,1008.61,VALID,0,VALID,104,VALID,0,VALID,22.4455,VALID,343,VALID,0,
2012-01-30, 00:08:04,VALID,1008.58,VALID,0,VALID,104,VALID,0,VALID,22.4667,VALID,343,VALID,0,
2012-01-30, 00:09:04,VALID,1008.56,VALID,0,VALID,104,VALID,0,VALID,22.5056,VALID,343,VALID,0.0691406,
2012-01-30, 00:10:04,VALID,1008.53,VALID,0,VALID,104,VALID,0,VALID,22.4861,VALID,343,VALID,0,
2012-01-30, 00:11:04,VALID,1008.52,VALID,0,VALID,104,VALID,0,VALID,22.4667,VALID,343,VALID,0,
2012-01-30, 00:12:04,VALID,1008.52,VALID,0,VALID,104,VALID,0,VALID,22.4472,VALID,343,VALID,0,
2012-01-30, 00:13:04,VALID,1008.52,VALID,0,VALID,104,VALID,0,VALID,22.4277,VALID,343,VALID,0.196484,
2012-01-30, 00:14:04,VALID,1008.5,VALID,0,VALID,104,VALID,0,VALID,22.4065,VALID,343,VALID,0.373047,
2012-01-30, 00:15:04,VALID,1008.49,VALID,0,VALID,104,VALID,0,VALID,22.4277,VALID,343,VALID,0.332031,
2012-01-30, 00:16:04,VALID,1008.47,VALID,0,VALID,104,VALID,0,VALID,22.4065,VALID,343,VALID,0.176953,
2012-01-30, 00:17:04,VALID,1008.47,VALID,0,VALID,104,VALID,0,VALID,22.4277,VALID,343,VALID,0,
2012-01-30, 00:18:04,VALID,1008.44,VALID,0,VALID,104,VALID,0,VALID,22.3887,VALID,343,VALID,0,
2012-01-30, 00:19:04,VALID,1008.45,VALID,0,VALID,104,VALID,0,VALID,22.3887,VALID,343,VALID,0,
2012-01-30, 00:20:04,VALID,1008.42,VALID,0,VALID,104,VALID,0,VALID,22.4082,VALID,343,VALID,0,
2012-01-30, 00:21:04,VALID,1008.37,VALID,0,VALID,104,VALID,0,VALID,22.4065,VALID,343,VALID,0,
2012-01-30, 00:22:04,VALID,1008.35,VALID,0,VALID,104,VALID,0,VALID,22.4277,VALID,343,VALID,0,
2012-01-30, 00:23:04,VALID,1008.32,VALID,0,VALID,104,VALID,0,VALID,22.4472,VALID,343,VALID,0,
2012-01-30, 00:24:04,VALID,1008.34,VALID,0,VALID,104,VALID,0.112112,VALID,22.4667,VALID,343,VALID,0,
2012-01-30, 00:25:04,VALID,1008.32,VALID,0,VALID,104,VALID,0,VALID,22.4472,VALID,343,VALID,0,
2012-01-30, 00:26:04,VALID,1008.31,VALID,0,VALID,104,VALID,0,VALID,22.4489,VALID,343,VALID,0,
2012-01-30, 00:27:04,VALID,1008.31,VALID,0,VALID,104,VALID,0,VALID,22.4082,VALID,343,VALID,0,
2012-01-30, 00:28:04,VALID,1008.35,VALID,0,VALID,104,VALID,0,VALID,22.4082,VALID,343,VALID,0,
2012-01-30, 00:29:04,VALID,1008.3,VALID,0,VALID,104,VALID,0,VALID,22.4472,VALID,343,VALID,0,
2012-01-30, 00:30:04,VALID,1008.31,VALID,0,VALID,104,VALID,0,VALID,22.4472,VALID,343,VALID,0,
2012-01-30, 00:31:04,VALID,1008.3,VALID,0,VALID,104,VALID,0,VALID,22.4667,VALID,343,VALID,0,
2012-01-30, 00:32:04,VALID,1008.29,VALID,0,VALID,104,VALID,0,VALID,22.4472,VALID,343,VALID,0,
2012-01-30, 00:33:04,VALID,1008.29,VALID,0,VALID,104,VALID,0.112112,VALID,22.4455,VALID,343,VALID,0,
2012-01-30, 00:34:04,VALID,1008.31,VALID,0,VALID,104,VALID,0,VALID,22.4472,VALID,343,VALID,0,
2012-01-30, 00:35:04,VALID,1008.29,VALID,0,VALID,104,VALID,0,VALID,22.4472,VALID,343,VALID,0,
2012-01-30, 00:36:04,VALID,1008.31,VALID,0,VALID,104,VALID,0,VALID,22.4472,VALID,343,VALID,0,
2012-01-30, 00:37:04,VALID,1008.32,VALID,0,VALID,104,VALID,0,VALID,22.4472,VALID,343,VALID,0,
2012-01-30, 00:38:04,VALID,1008.3,VALID,0,VALID,104,VALID,0,VALID,22.4065,VALID,343,VALID,0,
2012-01-30, 00:39:04,VALID,1008.33,VALID,0,VALID,104,VALID,0,VALID,22.4472,VALID,343,VALID,0,
2012-01-30, 00:40:04,VALID,1008.27,VALID,0,VALID,104,VALID,0,VALID,22.387,VALID,343,VALID,0,
2012-01-30, 00:41:04,VALID,1008.25,VALID,0,VALID,104,VALID,0.112112,VALID,22.4082,VALID,343,VALID,0,
2012-01-30, 00:42:04,VALID,1008.25,VALID,0,VALID,104,VALID,0.112112,VALID,22.4082,VALID,343,VALID,0,
2012-01-30, 00:43:04,VALID,1008.27,VALID,0,VALID,104,VALID,0,VALID,22.3887,VALID,343,VALID,0,
2012-01-30, 00:44:04,VALID,1008.23,VALID,0,VALID,104,VALID,0.112112,VALID,22.3887,VALID,343,VALID,0,
2012-01-30, 00:45:04,VALID,1008.23,VALID,0,VALID,104,VALID,0,VALID,22.387,VALID,343,VALID,0.0863281,
2012-01-30, 00:46:04,VALID,1008.23,VALID,0,VALID,104,VALID,0.112112,VALID,22.4277,VALID,343,VALID,0.199219,
2012-01-30, 00:47:04,VALID,1008.24,VALID,0,VALID,104,VALID,0,VALID,22.4667,VALID,343,VALID,0,
2012-01-30, 00:48:04,VALID,1008.22,VALID,0,VALID,104,VALID,0.112112,VALID,22.4065,VALID,343,VALID,0,
2012-01-30, 00:49:04,VALID,1008.21,VALID,0,VALID,104,VALID,0,VALID,22.4277,VALID,343,VALID,0.0800781,
2012-01-30, 00:50:04,VALID,1008.21,VALID,0,VALID,104,VALID,0,VALID,22.4472,VALID,343,VALID,0.000390625,
2012-01-30, 00:51:04,VALID,1008.17,VALID,0,VALID,104,VALID,0,VALID,22.4472,VALID,343,VALID,0,
2012-01-30, 00:52:04,VALID,1008.16,VALID,0,VALID,104,VALID,0,VALID,22.4472,VALID,343,VALID,0.00351562,
2012-01-30, 00:53:04,VALID,1008.12,VALID,0,VALID,104,VALID,0.112112,VALID,22.4472,VALID,343,VALID,0,
2012-01-30, 00:54:04,VALID,1008.09,VALID,0,VALID,104,VALID,0,VALID,22.4065,VALID,343,VALID,0,
2012-01-30, 00:55:04,VALID,1008.07,VALID,0,VALID,104,VALID,0.112112,VALID,22.3481,VALID,343,VALID,0.234766,
2012-01-30, 00:56:04,VALID,1008.07,VALID,0,VALID,104,VALID,0.112112,VALID,22.2897,VALID,343,VALID,0.152344,
2012-01-30, 00:57:04,VALID,1008.1,VALID,0,VALID,104,VALID,0,VALID,22.2719,VALID,343,VALID,0,
2012-01-30, 00:58:04,VALID,1008.1,VALID,0,VALID,104,VALID,0,VALID,22.2329,VALID,343,VALID,0,
2012-01-30, 00:59:04,VALID,1008.14,VALID,0,VALID,104,VALID,0.112112,VALID,22.2524,VALID,343,VALID,0,
2012-01-30, 01:00:04,VALID,1008.14,VALID,0,VALID,104,VALID,0,VALID,22.2719,VALID,343,VALID,0,
2012-01-30, 01:01:04,VALID,1008.14,VALID,0,VALID,104,VALID,0,VALID,22.2897,VALID,343,VALID,0,
2012-01-30, 01:02:04,VALID,1008.12,VALID,0,VALID,104,VALID,0.112112,VALID,22.3498,VALID,343,VALID,0.028125,
2012-01-30, 01:03:04,VALID,1008.12,VALID,0,VALID,104,VALID,0.112112,VALID,22.3498,VALID,343,VALID,0,
2012-01-30, 01:04:04,VALID,1008.08,VALID,0,VALID,104,VALID,0.112112,VALID,22.3498,VALID,343,VALID,0,
2012-01-30, 01:05:04,VALID,1008.06,VALID,0,VALID,104,VALID,0,VALID,22.3303,VALID,343,VALID,0,
2012-01-30, 01:06:04,VALID,1008.05,VALID,0,VALID,104,VALID,0.112112,VALID,22.2914,VALID,343,VALID,0,
2012-01-30, 01:07:04,VALID,1008.05,VALID,0,VALID,104,VALID,0,VALID,22.2312,VALID,343,VALID,0,
2012-01-30, 01:08:04,VALID,1008.06,VALID,0,VALID,104,VALID,0.112112,VALID,22.2524,VALID,343,VALID,0,
2012-01-30, 01:09:04,VALID,1008.04,VALID,0,VALID,104,VALID,0,VALID,22.2719,VALID,343,VALID,0,
2012-01-30, 01:10:04,VALID,1008.03,VALID,0,VALID,104,VALID,0,VALID,22.3108,VALID,343,VALID,0,
2012-01-30, 01:11:04,VALID,1008.01,VALID,0,VALID,104,VALID,0,VALID,22.3498,VALID,343,VALID,0,
2012-01-30, 01:12:04,VALID,1007.98,VALID,0,VALID,104,VALID,0.112112,VALID,22.3303,VALID,343,VALID,0,
2012-01-30, 01:13:04,VALID,1007.98,VALID,0,VALID,104,VALID,0,VALID,22.3693,VALID,343,VALID,0,
2012-01-30, 01:14:04,VALID,1007.98,VALID,0,VALID,104,VALID,0,VALID,22.3693,VALID,343,VALID,0,
2012-01-30, 01:15:04,VALID,1007.93,VALID,0,VALID,104,VALID,0.112112,VALID,22.3693,VALID,343,VALID,0,
2012-01-30, 01:16:04,VALID,1007.94,VALID,0,VALID,104,VALID,0,VALID,22.3498,VALID,343,VALID,0.108203,
2012-01-30, 01:17:04,VALID,1007.95,VALID,0,VALID,104,VALID,0.112112,VALID,22.387,VALID,343,VALID,0.258594,
2012-01-30, 01:18:04,VALID,1007.96,VALID,0,VALID,104,VALID,0,VALID,22.3286,VALID,343,VALID,0.323047,
2012-01-30, 01:19:04,VALID,1007.96,VALID,0,VALID,104,VALID,0.112112,VALID,22.3693,VALID,343,VALID,0.120703,
2012-01-30, 01:20:04,VALID,1007.96,VALID,0,VALID,104,VALID,0.112112,VALID,22.387,VALID,343,VALID,0.0222656,
2012-01-30, 01:21:04,VALID,1007.92,VALID,0,VALID,104,VALID,0,VALID,22.3887,VALID,343,VALID,0.244531,
2012-01-30, 01:22:04,VALID,1007.91,VALID,0,VALID,104,VALID,0,VALID,22.3693,VALID,343,VALID,0.342969,
2012-01-30, 01:23:04,VALID,1007.89,VALID,0,VALID,104,VALID,0,VALID,22.3303,VALID,343,VALID,0.186719,
2012-01-30, 01:24:04,VALID,1007.91,VALID,0,VALID,104,VALID,0.112112,VALID,22.3108,VALID,343,VALID,0.0410156,
2012-01-30, 01:25:04,VALID,1007.87,VALID,0,VALID,104,VALID,0,VALID,22.2719,VALID,343,VALID,0.0511719,
2012-01-30, 01:26:04,VALID,1007.87,VALID,0,VALID,104,VALID,0,VALID,22.2524,VALID,343,VALID,0,
2012-01-30, 01:27:04,VALID,1007.86,VALID,0,VALID,104,VALID,0,VALID,22.2524,VALID,343,VALID,0.00507812,
2012-01-30, 01:28:04,VALID,1007.85,VALID,0,VALID,104,VALID,0,VALID,22.2719,VALID,343,VALID,0.0847656,
2012-01-30, 01:29:04,VALID,1007.85,VALID,0,VALID,104,VALID,0,VALID,22.2914,VALID,343,VALID,0.0527344,
2012-01-30, 01:30:04,VALID,1007.82,VALID,0,VALID,104,VALID,0,VALID,22.2524,VALID,343,VALID,0.216016,
2012-01-30, 01:31:04,VALID,1007.79,VALID,0,VALID,104,VALID,0,VALID,22.2312,VALID,343,VALID,0.261719,
2012-01-30, 01:32:04,VALID,1007.82,VALID,0,VALID,104,VALID,0,VALID,22.2524,VALID,343,VALID,0.266016,
2012-01-30, 01:33:04,VALID,1007.81,VALID,0,VALID,104,VALID,0,VALID,22.2524,VALID,343,VALID,0.222266,
2012-01-30, 01:34:04,VALID,1007.84,VALID,0,VALID,104,VALID,0,VALID,22.2719,VALID,343,VALID,0.369141,
2012-01-30, 01:35:04,VALID,1007.83,VALID,0,VALID,104,VALID,0,VALID,22.2312,VALID,343,VALID,0.271094,
2012-01-30, 01:36:04,VALID,1007.85,VALID,0,VALID,104,VALID,0,VALID,22.2719,VALID,343,VALID,0.273828,
2012-01-30, 01:37:04,VALID,1007.85,VALID,0,VALID,104,VALID,0,VALID,22.2719,VALID,343,VALID,0.223828,
2012-01-30, 01:38:04,VALID,1007.84,VALID,0,VALID,104,VALID,0,VALID,22.2524,VALID,343,VALID,0.0464844,
2012-01-30, 01:39:04,VALID,1007.85,VALID,0,VALID,104,VALID,0,VALID,22.2329,VALID,343,VALID,0,
2012-01-30, 01:40:04,VALID,1007.86,VALID,0,VALID,104,VALID,0,VALID,22.194,VALID,343,VALID,0,
2012-01-30, 01:41:04,VALID,1007.83,VALID,0,VALID,104,VALID,0,VALID,22.2134,VALID,343,VALID,0.248437,
2012-01-30, 01:42:04,VALID,1007.81,VALID,0,VALID,104,VALID,0,VALID,22.2134,VALID,343,VALID,0.304688,
2012-01-30, 01:43:04,VALID,1007.78,VALID,0,VALID,104,VALID,0,VALID,22.2312,VALID,343,VALID,0.476953,
2012-01-30, 01:44:05,VALID,1007.73,VALID,0,VALID,104,VALID,0,VALID,22.2719,VALID,343,VALID,0.370313,
2012-01-30, 01:45:05,VALID,1007.72,VALID,0,VALID,104,VALID,0,VALID,22.2524,VALID,343,VALID,0.349609,
2012-01-30, 01:46:05,VALID,1007.72,VALID,0,VALID,104,VALID,0,VALID,22.2719,VALID,343,VALID,0.3,
2012-01-30, 01:47:04,VALID,1007.75,VALID,0,VALID,104,VALID,0,VALID,22.2524,VALID,343,VALID,0,
2012-01-30, 01:48:05,VALID,1007.73,VALID,0,VALID,104,VALID,0,VALID,22.2329,VALID,343,VALID,0,
2012-01-30, 01:49:05,VALID,1007.74,VALID,0,VALID,104,VALID,0,VALID,22.2329,VALID,343,VALID,0,
2012-01-30, 01:50:05,VALID,1007.72,VALID,0,VALID,104,VALID,0,VALID,22.2329,VALID,343,VALID,0,
2012-01-30, 01:51:05,VALID,1007.72,VALID,0,VALID,104,VALID,0,VALID,22.2329,VALID,343,VALID,0,
2012-01-30, 01:52:05,VALID,1007.68,VALID,0,VALID,104,VALID,0,VALID,22.2134,VALID,343,VALID,0,
2012-01-30, 01:53:05,VALID,1007.65,VALID,0,VALID,104,VALID,0,VALID,22.194,VALID,343,VALID,0.117188,
2012-01-30, 01:54:05,VALID,1007.59,VALID,0,VALID,104,VALID,0,VALID,22.194,VALID,343,VALID,0.257422,
2012-01-30, 01:55:05,VALID,1007.56,VALID,0,VALID,104,VALID,0,VALID,22.2151,VALID,343,VALID,0.440625,
2012-01-30, 01:56:05,VALID,1007.58,VALID,0,VALID,104,VALID,0,VALID,22.194,VALID,343,VALID,0.374609,
2012-01-30, 01:57:05,VALID,1007.57,VALID,0,VALID,104,VALID,0,VALID,22.1745,VALID,343,VALID,0.340625,
2012-01-30, 01:58:05,VALID,1007.56,VALID,0,VALID,104,VALID,0,VALID,22.155,VALID,343,VALID,0.256641,
2012-01-30, 01:59:05,VALID,1007.58,VALID,0,VALID,104,VALID,0,VALID,22.1745,VALID,343,VALID,0.130859,
2012-01-30, 02:00:05,VALID,1007.56,VALID,0,VALID,104,VALID,0,VALID,22.155,VALID,343,VALID,0,
2012-01-30, 02:01:05,VALID,1007.57,VALID,0,VALID,104,VALID,0,VALID,22.1355,VALID,343,VALID,0,
2012-01-30, 02:02:05,VALID,1007.53,VALID,0,VALID,104,VALID,0,VALID,22.0949,VALID,343,VALID,0,
2012-01-30, 02:03:05,VALID,1007.51,VALID,0,VALID,104,VALID,0,VALID,22.0754,VALID,343,VALID,0,
2012-01-30, 02:04:05,VALID,1007.49,VALID,0,VALID,104,VALID,0,VALID,22.1161,VALID,343,VALID,0,
2012-01-30, 02:05:05,VALID,1007.46,VALID,0,VALID,104,VALID,0,VALID,22.0949,VALID,343,VALID,0,
2012-01-30, 02:06:05,VALID,1007.48,VALID,0,VALID,104,VALID,0,VALID,22.0966,VALID,343,VALID,0,
2012-01-30, 02:07:05,VALID,1007.49,VALID,0,VALID,104,VALID,0,VALID,22.0966,VALID,343,VALID,0,
2012-01-30, 02:08:05,VALID,1007.52,VALID,0,VALID,104,VALID,0,VALID,22.0771,VALID,343,VALID,0,
2012-01-30, 02:09:05,VALID,1007.51,VALID,0,VALID,104,VALID,0.112112,VALID,22.1161,VALID,343,VALID,0,
2012-01-30, 02:10:05,VALID,1007.5,VALID,0,VALID,104,VALID,0,VALID,22.1161,VALID,343,VALID,0,
2012-01-30, 02:11:05,VALID,1007.5,VALID,0,VALID,104,VALID,0.112112,VALID,22.1355,VALID,343,VALID,0,
2012-01-30, 02:12:05,VALID,1007.45,VALID,0,VALID,104,VALID,0,VALID,22.155,VALID,343,VALID,0,
2012-01-30, 02:13:05,VALID,1007.46,VALID,0,VALID,104,VALID,0,VALID,22.155,VALID,343,VALID,0,
2012-01-30, 02:14:05,VALID,1007.44,VALID,0,VALID,104,VALID,0,VALID,22.1355,VALID,343,VALID,0,
2012-01-30, 02:15:05,VALID,1007.48,VALID,0,VALID,104,VALID,0,VALID,22.1161,VALID,343,VALID,0,
2012-01-30, 02:16:05,VALID,1007.49,VALID,0,VALID,104,VALID,0,VALID,22.1161,VALID,343,VALID,0,
2012-01-30, 02:17:05,VALID,1007.5,VALID,0,VALID,104,VALID,0,VALID,22.1355,VALID,343,VALID,0,
2012-01-30, 02:18:05,VALID,1007.49,VALID,0,VALID,104,VALID,0.112112,VALID,22.194,VALID,343,VALID,0,
2012-01-30, 02:19:05,VALID,1007.47,VALID,0,VALID,104,VALID,0,VALID,22.2329,VALID,343,VALID,0.121875,
2012-01-30, 02:20:05,VALID,1007.47,VALID,0,VALID,104,VALID,0,VALID,22.2118,VALID,343,VALID,0.0679687,
2012-01-30, 02:21:05,VALID,1007.43,VALID,0,VALID,104,VALID,0,VALID,22.2524,VALID,343,VALID,0,
2012-01-30, 02:22:05,VALID,1007.42,VALID,0,VALID,104,VALID,0,VALID,22.2524,VALID,343,VALID,0,
2012-01-30, 02:23:05,VALID,1007.4,VALID,0,VALID,104,VALID,0,VALID,22.2134,VALID,343,VALID,0,
2012-01-30, 02:24:05,VALID,1007.43,VALID,0,VALID,104,VALID,0,VALID,22.194,VALID,343,VALID,0,
2012-01-30, 02:25:05,VALID,1007.44,VALID,0,VALID,104,VALID,0,VALID,22.1745,VALID,343,VALID,0,
2012-01-30, 02:26:05,VALID,1007.44,VALID,0,VALID,104,VALID,0,VALID,22.1533,VALID,343,VALID,0,
2012-01-30, 02:27:05,VALID,1007.41,VALID,0,VALID,104,VALID,0,VALID,22.1745,VALID,343,VALID,0,
2012-01-30, 02:28:05,VALID,1007.4,VALID,0,VALID,104,VALID,0.112112,VALID,22.155,VALID,343,VALID,0,
2012-01-30, 02:29:05,VALID,1007.38,VALID,0,VALID,104,VALID,0,VALID,22.1161,VALID,343,VALID,0,
2012-01-30, 02:30:05,VALID,1007.37,VALID,0,VALID,104,VALID,0,VALID,22.0966,VALID,343,VALID,0,
2012-01-30, 02:31:05,VALID,1007.38,VALID,0,VALID,104,VALID,0,VALID,22.0983,VALID,343,VALID,0,
2012-01-30, 02:32:05,VALID,1007.38,VALID,0,VALID,104,VALID,0,VALID,22.056,VALID,343,VALID,0.130859,
2012-01-30, 02:33:05,VALID,1007.4,VALID,0,VALID,104,VALID,0,VALID,22.0771,VALID,343,VALID,0.0621094,
2012-01-30, 02:34:05,VALID,1007.42,VALID,0,VALID,104,VALID,0.112112,VALID,22.0771,VALID,343,VALID,0.163281,
2012-01-30, 02:35:05,VALID,1007.42,VALID,0,VALID,104,VALID,0,VALID,22.0576,VALID,343,VALID,0.114063,
2012-01-30, 02:36:05,VALID,1007.41,VALID,0,VALID,104,VALID,0,VALID,22.0576,VALID,343,VALID,0.263672,
2012-01-30, 02:37:05,VALID,1007.35,VALID,0,VALID,104,VALID,0,VALID,22.0576,VALID,343,VALID,0.276563,
2012-01-30, 02:38:05,VALID,1007.34,VALID,0,VALID,104,VALID,0,VALID,22.0187,VALID,343,VALID,0.229297,
2012-01-30, 02:39:05,VALID,1007.32,VALID,0,VALID,104,VALID,0,VALID,22.0187,VALID,343,VALID,0.0902344,
2012-01-30, 02:40:05,VALID,1007.34,VALID,0,VALID,104,VALID,0,VALID,21.9992,VALID,343,VALID,0,
2012-01-30, 02:41:05,VALID,1007.3,VALID,0,VALID,104,VALID,0,VALID,21.9408,VALID,343,VALID,0,
2012-01-30, 02:42:05,VALID,1007.29,VALID,0,VALID,104,VALID,0,VALID,21.8824,VALID,343,VALID,0,
2012-01-30, 02:43:05,VALID,1007.32,VALID,0,VALID,104,VALID,0,VALID,21.8629,VALID,343,VALID,0,
2012-01-30, 02:44:05,VALID,1007.34,VALID,0,VALID,104,VALID,0,VALID,21.8629,VALID,343,VALID,0,
2012-01-30, 02:45:05,VALID,1007.33,VALID,0,VALID,104,VALID,0.112112,VALID,21.8629,VALID,343,VALID,0,
2012-01-30, 02:46:05,VALID,1007.35,VALID,0,VALID,104,VALID,0,VALID,21.8629,VALID,343,VALID,0,
2012-01-30, 02:47:05,VALID,1007.35,VALID,0,VALID,104,VALID,0,VALID,21.8629,VALID,343,VALID,0,
2012-01-30, 02:48:05,VALID,1007.33,VALID,0,VALID,104,VALID,0,VALID,21.8629,VALID,343,VALID,0,
2012-01-30, 02:49:05,VALID,1007.34,VALID,0,VALID,104,VALID,0,VALID,21.8629,VALID,343,VALID,0,
2012-01-30, 02:50:05,VALID,1007.32,VALID,0,VALID,104,VALID,0,VALID,21.8629,VALID,343,VALID,0,
2012-01-30, 02:51:05,VALID,1007.32,VALID,0,VALID,104,VALID,0,VALID,21.8629,VALID,343,VALID,0,
2012-01-30, 02:52:05,VALID,1007.33,VALID,0,VALID,104,VALID,0,VALID,21.8629,VALID,343,VALID,0,
2012-01-30, 02:53:05,VALID,1007.33,VALID,0,VALID,104,VALID,0,VALID,21.8629,VALID,343,VALID,0,
2012-01-30, 02:54:05,VALID,1007.34,VALID,0,VALID,104,VALID,0,VALID,21.8434,VALID,343,VALID,0,
2012-01-30, 02:55:05,VALID,1007.37,VALID,0,VALID,104,VALID,0,VALID,21.8434,VALID,343,VALID,0,
2012-01-30, 02:56:05,VALID,1007.38,VALID,0,VALID,104,VALID,0,VALID,21.8629,VALID,343,VALID,0,
2012-01-30, 02:57:05,VALID,1007.39,VALID,0,VALID,104,VALID,0.112112,VALID,21.9018,VALID,343,VALID,0,
2012-01-30, 02:58:05,VALID,1007.37,VALID,0,VALID,104,VALID,0.112112,VALID,21.9018,VALID,343,VALID,0,
2012-01-30, 02:59:05,VALID,1007.39,VALID,0,VALID,104,VALID,0,VALID,21.9018,VALID,343,VALID,0,
2012-01-30, 03:00:05,VALID,1007.38,VALID,0,VALID,104,VALID,0,VALID,21.8629,VALID,343,VALID,0,
2012-01-30, 03:01:05,VALID,1007.37,VALID,0,VALID,104,VALID,0,VALID,21.8629,VALID,343,VALID,0,
2012-01-30, 03:02:05,VALID,1007.37,VALID,0,VALID,104,VALID,0,VALID,21.8239,VALID,343,VALID,0,
2012-01-30, 03:03:05,VALID,1007.36,VALID,0,VALID,104,VALID,0,VALID,21.8434,VALID,343,VALID,0,
2012-01-30, 03:04:05,VALID,1007.32,VALID,0,VALID,104,VALID,0,VALID,21.8239,VALID,343,VALID,0,
2012-01-30, 03:05:05,VALID,1007.33,VALID,0,VALID,104,VALID,0,VALID,21.8256,VALID,343,VALID,0,
2012-01-30, 03:06:05,VALID,1007.31,VALID,0,VALID,104,VALID,0,VALID,21.785,VALID,343,VALID,0,
2012-01-30, 03:07:05,VALID,1007.32,VALID,0,VALID,104,VALID,0,VALID,21.7655,VALID,343,VALID,0,
2012-01-30, 03:08:05,VALID,1007.32,VALID,0,VALID,104,VALID,0,VALID,21.7655,VALID,343,VALID,0,
2012-01-30, 03:09:05,VALID,1007.35,VALID,0,VALID,104,VALID,0,VALID,21.785,VALID,343,VALID,0,
2012-01-30, 03:10:05,VALID,1007.36,VALID,0,VALID,104,VALID,0,VALID,21.7866,VALID,343,VALID,0,
2012-01-30, 03:11:05,VALID,1007.35,VALID,0,VALID,104,VALID,0,VALID,21.7655,VALID,343,VALID,0,
2012-01-30, 03:12:05,VALID,1007.35,VALID,0,VALID,104,VALID,0,VALID,21.746,VALID,343,VALID,0,
2012-01-30, 03:13:05,VALID,1007.37,VALID,0,VALID,104,VALID,0,VALID,21.7266,VALID,343,VALID,0,
2012-01-30, 03:14:05,VALID,1007.39,VALID,0,VALID,104,VALID,0,VALID,21.7266,VALID,343,VALID,0,
2012-01-30, 03:15:05,VALID,1007.41,VALID,0,VALID,104,VALID,0,VALID,21.746,VALID,343,VALID,0,
2012-01-30, 03:16:05,VALID,1007.43,VALID,0,VALID,104,VALID,0,VALID,21.746,VALID,343,VALID,0,
2012-01-30, 03:17:05,VALID,1007.39,VALID,0,VALID,104,VALID,0,VALID,21.746,VALID,343,VALID,0,
2012-01-30, 03:18:05,VALID,1007.37,VALID,0,VALID,104,VALID,0,VALID,21.7655,VALID,343,VALID,0,
2012-01-30, 03:19:05,VALID,1007.36,VALID,0,VALID,104,VALID,0,VALID,21.785,VALID,343,VALID,0,
2012-01-30, 03:20:05,VALID,1007.37,VALID,0,VALID,104,VALID,0,VALID,21.785,VALID,343,VALID,0,
2012-01-30, 03:21:05,VALID,1007.4,VALID,0,VALID,104,VALID,0,VALID,21.7655,VALID,343,VALID,0,
2012-01-30, 03:22:05,VALID,1007.4,VALID,0,VALID,104,VALID,0,VALID,21.7655,VALID,343,VALID,0,
2012-01-30, 03:23:05,VALID,1007.42,VALID,0,VALID,104,VALID,0,VALID,21.8045,VALID,343,VALID,0,
2012-01-30, 03:24:05,VALID,1007.42,VALID,0,VALID,104,VALID,0,VALID,21.8256,VALID,343,VALID,0,
2012-01-30, 03:25:05,VALID,1007.39,VALID,0,VALID,104,VALID,0,VALID,21.785,VALID,343,VALID,0,
2012-01-30, 03:26:05,VALID,1007.4,VALID,0,VALID,104,VALID,0,VALID,21.7655,VALID,343,VALID,0,
2012-01-30, 03:27:05,VALID,1007.4,VALID,0,VALID,104,VALID,0,VALID,21.7071,VALID,343,VALID,0,
2012-01-30, 03:28:05,VALID,1007.43,VALID,0,VALID,104,VALID,0.112112,VALID,21.7071,VALID,343,VALID,0,
2012-01-30, 03:29:05,VALID,1007.43,VALID,0,VALID,104,VALID,0,VALID,21.7071,VALID,343,VALID,0,
2012-01-30, 03:30:05,VALID,1007.41,VALID,0,VALID,104,VALID,0.112112,VALID,21.7071,VALID,343,VALID,0,
2012-01-30, 03:31:05,VALID,1007.44,VALID,0,VALID,104,VALID,0,VALID,21.6876,VALID,343,VALID,0,
2012-01-30, 03:32:05,VALID,1007.43,VALID,0,VALID,104,VALID,0,VALID,21.6876,VALID,343,VALID,0,
2012-01-30, 03:33:05,VALID,1007.41,VALID,0,VALID,104,VALID,0,VALID,21.7266,VALID,343,VALID,0,
2012-01-30, 03:34:05,VALID,1007.41,VALID,0,VALID,104,VALID,0,VALID,21.7266,VALID,343,VALID,0,
2012-01-30, 03:35:05,VALID,1007.43,VALID,0,VALID,104,VALID,0,VALID,21.7266,VALID,343,VALID,0,
2012-01-30, 03:36:05,VALID,1007.43,VALID,0,VALID,104,VALID,0,VALID,21.7071,VALID,343,VALID,0,
2012-01-30, 03:37:05,VALID,1007.41,VALID,0,VALID,104,VALID,0,VALID,21.6681,VALID,343,VALID,0,
2012-01-30, 03:38:05,VALID,1007.43,VALID,0,VALID,104,VALID,0,VALID,21.6681,VALID,343,VALID,0,
2012-01-30, 03:39:05,VALID,1007.41,VALID,0,VALID,104,VALID,0,VALID,21.6487,VALID,343,VALID,0,
2012-01-30, 03:40:05,VALID,1007.41,VALID,0,VALID,104,VALID,0,VALID,21.6681,VALID,343,VALID,0,
2012-01-30, 03:41:05,VALID,1007.4,VALID,0,VALID,104,VALID,0,VALID,21.6876,VALID,343,VALID,0,
2012-01-30, 03:42:05,VALID,1007.37,VALID,0,VALID,104,VALID,0,VALID,21.7071,VALID,343,VALID,0,
2012-01-30, 03:43:05,VALID,1007.34,VALID,0,VALID,104,VALID,0,VALID,21.7266,VALID,343,VALID,0,
2012-01-30, 03:44:05,VALID,1007.34,VALID,0,VALID,104,VALID,0,VALID,21.7266,VALID,343,VALID,0,
2012-01-30, 03:45:05,VALID,1007.32,VALID,0,VALID,104,VALID,0,VALID,21.7071,VALID,343,VALID,0,
2012-01-30, 03:46:05,VALID,1007.32,VALID,0,VALID,104,VALID,0,VALID,21.6681,VALID,343,VALID,0,
2012-01-30, 03:47:05,VALID,1007.31,VALID,0,VALID,104,VALID,0,VALID,21.6097,VALID,343,VALID,0,
2012-01-30, 03:48:05,VALID,1007.32,VALID,0,VALID,104,VALID,0,VALID,21.5902,VALID,343,VALID,0,
2012-01-30, 03:49:05,VALID,1007.33,VALID,0,VALID,104,VALID,0,VALID,21.5902,VALID,343,VALID,0,
2012-01-30, 03:50:05,VALID,1007.34,VALID,0,VALID,104,VALID,0,VALID,21.6114,VALID,343,VALID,0,
2012-01-30, 03:51:05,VALID,1007.33,VALID,0,VALID,104,VALID,0,VALID,21.5902,VALID,343,VALID,0,
2012-01-30, 03:52:05,VALID,1007.32,VALID,0,VALID,104,VALID,0,VALID,21.5708,VALID,343,VALID,0,
2012-01-30, 03:53:05,VALID,1007.33,VALID,0,VALID,104,VALID,0,VALID,21.5529,VALID,343,VALID,0,
2012-01-30, 03:54:05,VALID,1007.32,VALID,0,VALID,104,VALID,0,VALID,21.4929,VALID,343,VALID,0,
2012-01-30, 03:55:05,VALID,1007.33,VALID,0,VALID,104,VALID,0,VALID,21.4539,VALID,343,VALID,0,
2012-01-30, 03:56:05,VALID,1007.3,VALID,0,VALID,104,VALID,0,VALID,21.4345,VALID,343,VALID,0,
2012-01-30, 03:57:05,VALID,1007.31,VALID,0,VALID,104,VALID,0,VALID,21.415,VALID,343,VALID,0,
2012-01-30, 03:58:05,VALID,1007.32,VALID,0,VALID,104,VALID,0,VALID,21.3955,VALID,343,VALID,0,
2012-01-30, 03:59:05,VALID,1007.33,VALID,0,VALID,104,VALID,0,VALID,21.3955,VALID,343,VALID,0,
2012-01-30, 04:00:05,VALID,1007.36,VALID,0,VALID,104,VALID,0,VALID,21.355,VALID,343,VALID,0,
2012-01-30, 04:01:05,VALID,1007.33,VALID,0,VALID,104,VALID,0,VALID,21.3955,VALID,343,VALID,0,
2012-01-30, 04:02:05,VALID,1007.34,VALID,0,VALID,104,VALID,0,VALID,21.415,VALID,343,VALID,0.170703,